Location: Chez Launaix
(45.8234°N, 2.2383°E)
Time: 16:03:55
(UTC+00:00)

Daily predictions for brighter satellites

Satellite Brightness Start Highest point End
(mag) Time Altitude Azimuth Time Altitude Azimuth Time Altitude Azimuth
COSMOS 2406 3.3 16:34:22 10° SSW 16:40:07 89° ESE 16:45:53 10° NNE
Cosmos 468 Rocket 4.5 16:36:16 10° SSW 16:41:22 63° WNW 16:46:35 10° NNE
Meteor 1-31 Rocket 4.5 16:40:56 10° SSW 16:44:28 38° W 16:48:05 10° NNW
Cosmos 1428 Rocket 4.5 16:42:09 10° N 16:48:17 69° E 16:54:27 10° SSE
NOSS 2-2 (C) 4.5 16:44:51 10° NW 16:50:07 89° NE 16:57:36 10° SE
Cosmos 1092 Rocket 4.1 16:47:03 10° N 16:53:26 85° E 16:59:45 10° S
CZ-4B R/B 4.0 16:49:14 10° ESE 16:53:35 26° ENE 16:57:55 10° N
CZ-2D R/B 4.1 16:52:24 10° SE 16:55:40 28° ENE 16:58:58 10° N
Meteor 2-21 4.4 16:50:56 10° N 16:57:01 71° E 17:03:02 10° SSE
ATLAS CENTAUR R/B 3.2 16:46:38 10° SW 16:57:18 71° NW 17:01:31 10° NE
USA 267 3.4 16:50:50 10° NE 16:57:20 65° SE 17:03:49 10° SW
Cosmos 1939 Rocket 2.9 16:54:12 10° SSE 16:58:15 65° ENE 17:02:17 10° N
USA 306 3.8 16:56:39 10° NW 17:00:31 33° NNE 17:03:51 13° ENE
Cosmos 1151 Rocket 3.5 16:56:47 10° SSE 17:00:50 41° E 17:04:57 10° NNE
Cosmos 1633 Rocket 3.5 16:57:57 10° N 17:02:04 39° ENE 17:06:11 10° SE
COSMO-SKYMED 1 4.0 16:59:13 10° NE 17:02:19 19° E 17:05:25 10° SE
Cosmos 1782 2.7 16:58:54 10° S 17:02:53 82° E 17:06:53 10° N
Cosmos 1666 3.0 17:00:18 10° N 17:03:50 41° ENE 17:07:22 10° SSE
Cosmos 2360 Rocket 3.6 17:01:35 10° N 17:05:25 18° NE 17:08:17 13° ENE
ISS -2.4 17:02:59 10° WNW 17:06:13 42° SW 17:09:25 10° SE
PAYLOAD B 4.5 17:02:59 10° SE 17:08:20 48° ENE 17:13:41 10° N
SeaSat 1 4.4 17:05:13 10° N 17:09:02 23° NW 17:12:51 10° W
SL-08 R/B 4.1 17:05:22 10° N 17:09:55 51° WNW 17:14:23 10° SW
Cosmos 1818 3.6 17:06:08 10° NNW 17:11:34 59° NE 17:16:56 10° SE
CZ-2C R/B 3.6 17:12:37 10° SSW 17:15:24 17° S 17:18:07 10° SE
Cosmos 2279 Rocket 4.0 17:10:45 10° S 17:16:50 61° E 17:22:55 10° NNE
ATLAS 5 CENTAUR R/B 3.0 17:10:40 10° NW 17:17:44 33° NNE 17:19:39 19° ENE
Cosmos 2142 Rocket 4.5 17:11:41 10° S 17:17:46 65° E 17:23:56 10° NNE
Cosmos 841 Rocket 3.9 17:12:50 10° SSW 17:17:58 64° WNW 17:23:05 10° NNE
ERBS 4.5 17:18:44 10° NNW 17:20:01 12° N 17:20:46 11° NNE
Cosmos 2266 Rocket 4.5 17:15:12 10° N 17:21:09 39° ENE 17:27:04 10° SE
USA 307 3.6 17:17:13 10° NW 17:21:11 36° NNE 17:23:33 20° ENE
CZ-4C R/B 3.1 17:15:18 10° NW 17:22:37 86° SW 17:31:08 10° SE
Lacrosse 5 rocket 1.2 17:20:44 10° NW 17:24:38 71° NE 17:28:46 10° ESE
Cosmos 2208 Rocket 4.1 17:22:00 10° S 17:27:21 68° ESE 17:32:47 10° NNE
ATLAS 2AS CENTAUR R/B 4.3 17:22:14 10° NW 17:27:31 20° N 17:31:18 14° NE
Cosmos 2322 Rocket 2.8 17:23:26 10° NNW 17:28:41 36° NE 17:33:54 10° ESE
Cosmos 1933 Rocket 4.3 17:25:21 10° NNE 17:29:08 28° ENE 17:32:51 10° SE
AQUARIUS 4.3 17:25:05 10° S 17:29:33 78° WSW 17:34:05 10° NNW
Cosmos 2150 Rocket 4.1 17:25:40 10° NNW 17:30:43 50° ENE 17:35:48 10° SE
Cosmos 1328 Rocket 3.6 17:26:29 10° S 17:30:51 61° E 17:35:14 10° NNE
USA 234 3.2 17:24:23 10° ESE 17:30:54 72° NNE 17:37:25 10° NW
Cosmos 1666 Rocket 3.6 17:27:14 10° N 17:31:41 85° W 17:36:04 10° S
Cosmos 1980 Rocket 3.1 17:26:28 10° NW 17:31:58 53° WSW 17:37:24 10° S
CORIOLIS 4.4 17:29:40 10° S 17:35:03 73° WSW 17:40:31 10° NNW
Cosmos 1470 Rocket 3.7 17:30:55 10° N 17:35:18 51° ENE 17:39:39 10° SSE
Cosmos 1544 3.6 17:32:00 10° N 17:35:22 35° ENE 17:38:43 10° SE
Cosmos 1867 4.4 17:31:39 10° S 17:36:22 31° ESE 17:38:27 24° ENE
Cosmos 1812 3.0 17:32:52 10° SSW 17:36:42 68° W 17:40:33 10° N
Cosmos 1125 Rocket 3.6 17:31:49 10° NNW 17:36:57 52° ENE 17:42:05 10° SE
X-37B 1.7 17:34:38 10° SW 17:37:09 27° SSE 17:37:49 24° SE
PSLV R/B 3.6 17:33:59 10° SSE 17:37:41 86° WSW 17:41:28 10° NNW
H-2A R/B 1.9 17:33:19 10° SSE 17:38:25 76° ENE 17:43:26 10° N
DEBRIS 4.4 17:36:25 10° S 17:38:28 18° ESE 17:38:35 18° ESE
Okean O Rocket 1.9 17:36:04 10° SE 17:40:16 43° ENE 17:44:31 10° N
Meteor 2-8 Rocket 4.4 17:34:39 10° S 17:40:45 70° E 17:46:54 10° NNE
Meteor 1-10 Rocket 4.3 17:35:20 10° S 17:40:54 54° E 17:46:24 10° NNE
Meteor 1-11 Rocket 3.9 17:36:56 10° N 17:42:24 47° ENE 17:47:56 10° SSE
USA 308 3.3 17:39:54 10° NW 17:44:00 44° NNE 17:45:21 33° ENE
SL-16 R/B 2.1 17:43:48 10° NNW 17:49:28 63° ENE 17:55:04 10° SE
ARGOS 3.1 17:45:01 10° SSE 17:50:19 60° ENE 17:55:38 10° N
SKYMED 2 3.6 17:47:47 20° NNE 17:50:41 57° E 17:54:58 10° S
Cosmos 2082 Rocket 3.2 17:45:52 10° SW 17:51:17 45° WNW 17:56:43 10° NNE
deb Chang Zheng 4 3.4 17:51:31 10° SSE 17:55:48 72° ENE 18:00:07 10° N
COSMOS 2455 4.1 17:54:13 10° WSW 17:59:46 37° NW 18:04:53 12° NNE
Feng Yun 1-1 Rocket 4.4 17:59:30 10° SE 18:05:14 54° ENE 18:10:54 10° N
USA 305 2.8 18:04:12 10° NW 18:08:25 63° NNE 18:08:52 59° ENE
Cosmos 2333 Rocket 3.4 18:04:16 10° N 18:08:04 25° NNE 18:08:04 25° NNE
Cosmos 1356 Rocket 3.3 18:05:45 10° N 18:10:00 79° E 18:14:15 10° SSE
CZ-2C R/B 2.5 18:06:50 11° NNE 18:11:51 89° WNW 18:17:02 10° SSW
Cosmos 2219 Rocket 3.7 18:12:19 10° N 18:15:04 21° NNE 18:15:04 21° NNE
Aureole 3 Rocket 3.5 18:12:44 10° S 18:17:12 65° E 18:23:34 10° NNE
Cosmos 44 Rocket 4.4 18:12:52 10° NW 18:17:29 42° WSW 18:21:57 10° S
Cosmos 1655 Rocket 4.1 18:11:32 10° N 18:17:57 82° W 18:24:17 10° S
Cosmos 1515 Rocket 3.6 18:13:33 10° SSW 18:17:59 79° W 18:20:27 26° N
Cosmos 921 Rocket 3.7 18:16:30 10° SW 18:20:35 50° WNW 18:22:47 25° N
Spot 2 4.4 18:23:28 44° SE 18:24:56 63° ENE 18:29:58 10° N
CZ-4B R/B 4.0 18:28:39 10° S 18:33:52 50° W 18:39:03 10° NNW
COSMO-SKYMED 1 3.6 18:36:23 23° N 18:38:42 45° WNW 18:42:50 10° SW
USA 267 3.7 18:37:47 35° NNE 18:40:15 52° NNW 18:46:32 10° W
USA 306 3.4 18:36:29 10° WNW 18:39:52 56° WNW 18:39:52 56° WNW
Landsat 5 3.9 18:41:36 57° W 18:41:36 57° W 18:45:13 10° SSW
Meteor 1-27 Rocket 3.7 18:38:25 10° SSW 18:43:56 75° WNW 18:46:30 33° N
Cosmos 2360 Rocket 2.0 18:44:35 10° NNW 18:50:08 83° NNE 18:50:08 83° NNE
Cosmos 2237 4.4 18:48:03 10° NNW 18:53:44 68° WSW 18:55:53 38° S
CZ-2C R/B 3.6 18:51:16 10° SW 18:53:23 17° SSW 18:53:23 17° SSW
USA 307 4.4 18:57:06 10° WNW 18:59:35 34° WNW 18:59:35 34° WNW
Lacrosse 5 rocket 3.8 19:00:34 10° W 19:03:23 18° SW 19:04:38 16° SSW
Cosmos 2322 Rocket 3.4 19:07:29 10° NW 19:12:47 41° WSW 19:17:09 15° S
USA 234 4.3 19:10:00 19° S 19:14:11 39° SW 19:20:15 10° WNW
Okean O Rocket 4.1 19:13:28 10° SW 19:16:48 21° W 19:20:10 10° NW
NOSS 3-4 (A) 4.2 19:11:06 10° NW 19:16:20 50° N 19:16:20 50° N
NOSS 3-4 (C) 4.2 19:11:13 10° NW 19:16:23 49° N 19:16:23 49° N
Cosmos 1867 4.4 19:14:28 10° WSW 19:19:10 47° WNW 19:19:10 47° WNW
ATLAS 2AS CENTAUR R/B 4.0 19:14:13 10° NNW 19:18:45 29° N 19:18:45 29° N
NOSS 3-3 (A) 4.4 19:21:13 10° SW 19:25:51 55° W 19:25:51 55° W
NOSS 3-3 (C) 4.4 19:21:18 10° SW 19:25:56 55° W 19:25:56 55° W
SL-16 R/B 4.5 19:28:53 10° NW 19:33:02 21° W 19:37:11 10° SSW
Cosmos 2333 Rocket 4.2 19:48:10 10° NNW 19:50:07 22° NW 19:50:07 22° NW
